,,Stat6,,Stat2,,Stat8,,Stat9,,Stat10,,Wind1,,Wind1,
time,status,PA1M_AVG,status,PR1M_SUM,status,RH1M_AVG,status,SR1M_AVG,status,TA1M_AVG,status,W1dAve1m,status,W1sAve1m,
2003-12-13, 00:00:00,VALID,917.722,VALID,0,VALID,98.0979,VALID,0.0849042,VALID,18.4876,VALID,19,VALID,0,
2003-12-13, 00:01:00,VALID,917.716,VALID,0,VALID,98.1755,VALID,0.0169808,VALID,18.468,VALID,39,VALID,0.187891,
2003-12-13, 00:02:00,VALID,917.704,VALID,0,VALID,98.2162,VALID,0.0679233,VALID,18.475,VALID,39,VALID,0.192578,
2003-12-13, 00:03:00,VALID,917.705,VALID,0,VALID,98.2531,VALID,0.0339617,VALID,18.4524,VALID,41,VALID,0.303622,
2003-12-13, 00:04:00,VALID,917.696,VALID,0,VALID,98.2836,VALID,0.0169808,VALID,18.4394,VALID,99,VALID,0.500186,
2003-12-13, 00:05:00,VALID,917.705,VALID,0,VALID,98.2251,VALID,0.0849042,VALID,18.4101,VALID,119,VALID,0.690407,
2003-12-13, 00:06:00,VALID,917.698,VALID,0,VALID,98.2925,VALID,0.0339617,VALID,18.3583,VALID,122,VALID,0.682884,
2003-12-13, 00:07:00,VALID,917.706,VALID,0,VALID,98.3573,VALID,-0.0679233,VALID,18.3177,VALID,122,VALID,0.49891,
2003-12-13, 00:08:00,VALID,917.7,VALID,0,VALID,98.4527,VALID,-0.101885,VALID,18.3059,VALID,122,VALID,0.300967,
2003-12-13, 00:09:00,VALID,917.71,VALID,0,VALID,98.5811,VALID,-0.0849042,VALID,18.2794,VALID,122,VALID,0.331759,
2003-12-13, 00:10:00,VALID,917.717,VALID,0,VALID,98.9079,VALID,-0.101885,VALID,18.2861,VALID,122,VALID,0.370808,
2003-12-13, 00:11:00,VALID,917.727,VALID,0,VALID,99.1406,VALID,-0.0849042,VALID,18.3089,VALID,122,VALID,0.2,
2003-12-13, 00:12:00,VALID,917.716,VALID,0,VALID,99.2309,VALID,-0.101885,VALID,18.3476,VALID,122,VALID,0.0198038,
2003-12-13, 00:13:00,VALID,917.71,VALID,0,VALID,99.2945,VALID,-0.0849042,VALID,18.3663,VALID,122,VALID,0,
2003-12-13, 00:14:00,VALID,917.718,VALID,0,VALID,99.3047,VALID,-0.0339617,VALID,18.4155,VALID,122,VALID,0,
2003-12-13, 00:15:00,VALID,917.716,VALID,0,VALID,99.0338,VALID,-0.0849042,VALID,18.4374,VALID,122,VALID,0,
2003-12-13, 00:16:00,VALID,917.732,VALID,0,VALID,98.6625,VALID,-0.101885,VALID,18.4314,VALID,122,VALID,0,
2003-12-13, 00:17:00,VALID,917.737,VALID,0,VALID,98.3294,VALID,-0.101885,VALID,18.3993,VALID,122,VALID,0,
2003-12-13, 00:18:00,VALID,917.745,VALID,0,VALID,98.1552,VALID,-0.0679233,VALID,18.3569,VALID,122,VALID,0,
2003-12-13, 00:19:00,VALID,917.754,VALID,0,VALID,98.1234,VALID,-0.0849042,VALID,18.3244,VALID,122,VALID,0,
2003-12-13, 00:20:00,VALID,917.749,VALID,0,VALID,98.0585,VALID,-0.0169808,VALID,18.2987,VALID,122,VALID,0.0374273,
2003-12-13, 00:21:00,VALID,917.753,VALID,0,VALID,97.9759,VALID,-0.0679233,VALID,18.2563,VALID,122,VALID,0.272135,
2003-12-13, 00:22:00,VALID,917.752,VALID,0,VALID,98.309,VALID,-0.0509425,VALID,18.2856,VALID,122,VALID,0.0604539,
2003-12-13, 00:23:00,VALID,917.744,VALID,0,VALID,98.1882,VALID,-0.101885,VALID,18.257,VALID,122,VALID,0.0668605,
2003-12-13, 00:24:00,VALID,917.74,VALID,0,VALID,97.9352,VALID,-0.101885,VALID,18.2056,VALID,122,VALID,0.0014881,
2003-12-13, 00:25:00,VALID,917.739,VALID,0,VALID,98.1043,VALID,-0.0849042,VALID,18.1698,VALID,122,VALID,0.00078125,
2003-12-13, 00:26:00,VALID,917.738,VALID,0,VALID,98.3624,VALID,-0.0849042,VALID,18.1567,VALID,122,VALID,0.227307,
2003-12-13, 00:27:00,VALID,917.73,VALID,0,VALID,98.688,VALID,-0.0849042,VALID,18.1989,VALID,122,VALID,0.104936,
2003-12-13, 00:28:00,VALID,917.727,VALID,0,VALID,98.7274,VALID,-0.0679233,VALID,18.1896,VALID,122,VALID,0.00104167,
2003-12-13, 00:29:00,VALID,917.713,VALID,0,VALID,98.9003,VALID,-0.0679233,VALID,18.2083,VALID,122,VALID,0.00817587,
2003-12-13, 00:30:00,VALID,917.693,VALID,0,VALID,98.5684,VALID,-0.0849042,VALID,18.167,VALID,122,VALID,0,
2003-12-13, 00:31:00,VALID,917.689,VALID,0,VALID,98.4006,VALID,-0.0849042,VALID,18.1212,VALID,122,VALID,0,
2003-12-13, 00:32:00,VALID,917.676,VALID,0,VALID,98.5137,VALID,-0.101885,VALID,18.0958,VALID,122,VALID,0,
2003-12-13, 00:33:00,VALID,917.662,VALID,0,VALID,98.5951,VALID,-0.0339617,VALID,18.0923,VALID,122,VALID,0,
2003-12-13, 00:34:00,VALID,917.639,VALID,0,VALID,98.5405,VALID,-0.0849042,VALID,18.0732,VALID,122,VALID,0,
2003-12-13, 00:35:00,VALID,917.629,VALID,0,VALID,98.515,VALID,-0.101885,VALID,18.0473,VALID,122,VALID,0,
2003-12-13, 00:36:00,VALID,917.621,VALID,0,VALID,98.6829,VALID,-0.0849042,VALID,18.0374,VALID,122,VALID,0,
2003-12-13, 00:37:00,VALID,917.595,VALID,0,VALID,98.8456,VALID,0.0169808,VALID,18.0529,VALID,122,VALID,0.162246,
2003-12-13, 00:38:00,VALID,917.571,VALID,0,VALID,99.2856,VALID,0.0509425,VALID,18.1329,VALID,168,VALID,0.374455,
2003-12-13, 00:39:00,VALID,917.536,VALID,0,VALID,99.3416,VALID,0,VALID,18.1687,VALID,186,VALID,0.231357,
2003-12-13, 00:40:00,VALID,917.485,VALID,0,VALID,99.3657,VALID,0,VALID,18.1689,VALID,186,VALID,0.0362043,
2003-12-13, 00:41:00,VALID,917.462,VALID,0,VALID,99.5463,VALID,0.0169808,VALID,18.2083,VALID,186,VALID,0,
2003-12-13, 00:42:00,VALID,917.446,VALID,0,VALID,99.3365,VALID,-0.101885,VALID,18.1963,VALID,186,VALID,0.000186012,
2003-12-13, 00:43:00,VALID,917.441,VALID,0,VALID,99.3937,VALID,-0.0339617,VALID,18.177,VALID,186,VALID,0.0191406,
2003-12-13, 00:44:00,VALID,917.433,VALID,0,VALID,99.395,VALID,-0.0679233,VALID,18.2028,VALID,186,VALID,0,
2003-12-13, 00:45:00,VALID,917.439,VALID,0,VALID,99.2576,VALID,-0.0849042,VALID,18.183,VALID,186,VALID,0.245536,
2003-12-13, 00:46:00,VALID,917.432,VALID,0,VALID,99.2157,VALID,-0.0679233,VALID,18.1735,VALID,186,VALID,0.5625,
2003-12-13, 00:47:00,VALID,917.429,VALID,0,VALID,99.0707,VALID,-0.0849042,VALID,18.1608,VALID,177,VALID,0.49043,
2003-12-13, 00:48:00,VALID,917.431,VALID,0,VALID,98.7058,VALID,-0.0849042,VALID,18.0965,VALID,146,VALID,0.557594,
2003-12-13, 00:49:00,VALID,917.432,VALID,0,VALID,99.0262,VALID,-0.101885,VALID,18.054,VALID,142,VALID,0.471955,
2003-12-13, 00:50:00,VALID,917.408,VALID,0,VALID,99.3568,VALID,-0.0849042,VALID,18.096,VALID,142,VALID,0.379084,
2003-12-13, 00:51:00,VALID,917.408,VALID,0,VALID,99.3263,VALID,-0.0679233,VALID,18.099,VALID,142,VALID,0.267987,
2003-12-13, 00:52:00,VALID,917.398,VALID,0,VALID,99.4713,VALID,-0.0679233,VALID,18.102,VALID,142,VALID,0.15298,
2003-12-13, 00:53:00,VALID,917.398,VALID,0,VALID,99.2665,VALID,-0.0679233,VALID,18.1119,VALID,142,VALID,0,
2003-12-13, 00:54:00,VALID,917.393,VALID,0,VALID,99.4001,VALID,-0.0849042,VALID,18.1022,VALID,142,VALID,0,
2003-12-13, 00:55:00,VALID,917.391,VALID,0,VALID,99.4585,VALID,-0.101885,VALID,18.1218,VALID,142,VALID,0,
2003-12-13, 00:56:00,VALID,917.363,VALID,0,VALID,99.498,VALID,-0.0679233,VALID,18.1414,VALID,142,VALID,0,
2003-12-13, 00:57:00,VALID,917.352,VALID,0,VALID,99.4153,VALID,-0.0679233,VALID,18.1477,VALID,142,VALID,0,
2003-12-13, 00:58:00,VALID,917.333,VALID,0,VALID,99.0109,VALID,-0.0849042,VALID,18.093,VALID,142,VALID,0,
2003-12-13, 00:59:00,VALID,917.315,VALID,0,VALID,98.6218,VALID,-0.101885,VALID,17.9929,VALID,140,VALID,0.270774,
2003-12-13, 01:00:00,VALID,917.289,VALID,0,VALID,98.2925,VALID,-0.101885,VALID,17.8894,VALID,81,VALID,0.483103,
2003-12-13, 01:01:00,VALID,917.281,VALID,0,VALID,98.281,VALID,-0.0679233,VALID,17.8022,VALID,52,VALID,0.517756,
2003-12-13, 01:02:00,VALID,917.261,VALID,0,VALID,98.6689,VALID,-0.101885,VALID,17.7966,VALID,51,VALID,0.330915,
2003-12-13, 01:03:00,VALID,917.26,VALID,0,VALID,99.0402,VALID,-0.101885,VALID,17.8061,VALID,51,VALID,0.315341,
2003-12-13, 01:04:00,VALID,917.244,VALID,0,VALID,99.2958,VALID,-0.101885,VALID,17.8188,VALID,51,VALID,0.261814,
2003-12-13, 01:05:00,VALID,917.225,VALID,0,VALID,99.4509,VALID,-0.101885,VALID,17.825,VALID,51,VALID,0.19077,
2003-12-13, 01:06:00,VALID,917.219,VALID,0,VALID,99.3606,VALID,-0.0849042,VALID,17.8119,VALID,51,VALID,0.0310764,
2003-12-13, 01:07:00,VALID,917.219,VALID,0,VALID,99.208,VALID,-0.101885,VALID,17.7895,VALID,51,VALID,0,
2003-12-13, 01:08:00,VALID,917.196,VALID,0,VALID,99.0287,VALID,-0.101885,VALID,17.7417,VALID,51,VALID,0,
2003-12-13, 01:09:00,VALID,917.202,VALID,0,VALID,99.1178,VALID,-0.0849042,VALID,17.6894,VALID,51,VALID,0,
2003-12-13, 01:10:00,VALID,917.185,VALID,0,VALID,99.4229,VALID,-0.101885,VALID,17.7097,VALID,51,VALID,0.0118096,
2003-12-13, 01:11:00,VALID,917.177,VALID,0,VALID,99.7383,VALID,-0.118866,VALID,17.7512,VALID,51,VALID,0.178544,
2003-12-13, 01:12:00,VALID,917.173,VALID,0,VALID,99.8362,VALID,-0.101885,VALID,17.8024,VALID,51,VALID,0.174479,
2003-12-13, 01:13:00,VALID,917.166,VALID,0,VALID,99.615,VALID,-0.101885,VALID,17.8123,VALID,51,VALID,0.0645032,
2003-12-13, 01:14:00,VALID,917.177,VALID,0,VALID,99.4179,VALID,-0.101885,VALID,17.7837,VALID,51,VALID,0,
2003-12-13, 01:15:00,VALID,917.172,VALID,0,VALID,99.428,VALID,-0.101885,VALID,17.7703,VALID,51,VALID,0,
2003-12-13, 01:16:00,VALID,917.184,VALID,0,VALID,99.4102,VALID,-0.101885,VALID,17.7641,VALID,51,VALID,0,
2003-12-13, 01:17:00,VALID,917.165,VALID,0,VALID,99.3428,VALID,-0.101885,VALID,17.7542,VALID,51,VALID,0,
2003-12-13, 01:18:00,VALID,917.151,VALID,0,VALID,99.3365,VALID,-0.101885,VALID,17.7318,VALID,51,VALID,0,
2003-12-13, 01:19:00,VALID,917.133,VALID,0,VALID,99.2297,VALID,-0.101885,VALID,17.6993,VALID,51,VALID,0,
2003-12-13, 01:20:00,VALID,917.121,VALID,0,VALID,99.1991,VALID,-0.0679233,VALID,17.6838,VALID,51,VALID,0.0589489,
2003-12-13, 01:21:00,VALID,917.118,VALID,0,VALID,99.2856,VALID,-0.0679233,VALID,17.6446,VALID,51,VALID,0.18407,
2003-12-13, 01:22:00,VALID,917.106,VALID,0,VALID,99.3009,VALID,-0.101885,VALID,17.6315,VALID,51,VALID,0.201853,
2003-12-13, 01:23:00,VALID,917.106,VALID,0,VALID,99.1483,VALID,-0.0679233,VALID,17.5766,VALID,51,VALID,0.213715,
2003-12-13, 01:24:00,VALID,917.107,VALID,0,VALID,99.0707,VALID,-0.101885,VALID,17.5346,VALID,51,VALID,0.0690407,
2003-12-13, 01:25:00,VALID,917.111,VALID,0,VALID,99.2182,VALID,-0.101885,VALID,17.5155,VALID,51,VALID,0.114901,
2003-12-13, 01:26:00,VALID,917.12,VALID,0,VALID,99.2678,VALID,-0.118866,VALID,17.506,VALID,51,VALID,0.0104167,
2003-12-13, 01:27:00,VALID,917.111,VALID,0,VALID,99.2551,VALID,-0.0849042,VALID,17.4834,VALID,51,VALID,0.0219494,
2003-12-13, 01:28:00,VALID,917.089,VALID,0,VALID,99.5552,VALID,-0.0849042,VALID,17.5088,VALID,51,VALID,0.178977,
2003-12-13, 01:29:00,VALID,917.091,VALID,0,VALID,99.5883,VALID,-0.118866,VALID,17.5189,VALID,51,VALID,0,
2003-12-13, 01:30:00,VALID,917.076,VALID,0,VALID,99.6607,VALID,-0.0849042,VALID,17.5351,VALID,51,VALID,0,
2003-12-13, 01:31:00,VALID,917.069,VALID,0,VALID,99.6646,VALID,-0.101885,VALID,17.5379,VALID,51,VALID,0,
2003-12-13, 01:32:00,VALID,917.057,VALID,0,VALID,99.5806,VALID,-0.101885,VALID,17.5058,VALID,51,VALID,0,
2003-12-13, 01:33:00,VALID,917.061,VALID,0,VALID,99.6175,VALID,-0.101885,VALID,17.5189,VALID,51,VALID,0.00117188,
2003-12-13, 01:34:00,VALID,917.06,VALID,0,VALID,99.4853,VALID,-0.101885,VALID,17.4669,VALID,51,VALID,0,
2003-12-13, 01:35:00,VALID,917.066,VALID,0,VALID,99.4051,VALID,-0.118866,VALID,17.4253,VALID,51,VALID,0,
2003-12-13, 01:36:00,VALID,917.063,VALID,0,VALID,99.4458,VALID,-0.118866,VALID,17.3965,VALID,51,VALID,0,
2003-12-13, 01:37:00,VALID,917.071,VALID,0,VALID,99.7854,VALID,-0.0849042,VALID,17.4477,VALID,51,VALID,0,
2003-12-13, 01:38:00,VALID,917.068,VALID,0,VALID,99.8349,VALID,-0.0849042,VALID,17.4638,VALID,51,VALID,0,
2003-12-13, 01:39:00,VALID,917.08,VALID,0,VALID,99.9916,VALID,-0.0849042,VALID,17.4996,VALID,51,VALID,0,
2003-12-13, 01:40:00,VALID,917.066,VALID,0,VALID,99.9855,VALID,-0.0679233,VALID,17.4996,VALID,51,VALID,0.217262,
2003-12-13, 01:41:00,VALID,917.048,VALID,0,VALID,100,VALID,-0.0679233,VALID,17.5088,VALID,51,VALID,0.102865,
2003-12-13, 01:42:00,VALID,917.063,VALID,0,VALID,100,VALID,-0.0849042,VALID,17.5704,VALID,51,VALID,0.395139,
2003-12-13, 01:43:00,VALID,917.056,VALID,0,VALID,100,VALID,-0.101885,VALID,17.6188,VALID,42,VALID,0.755208,
2003-12-13, 01:44:00,VALID,917.043,VALID,0,VALID,100,VALID,-0.0679233,VALID,17.6896,VALID,38,VALID,0.708984,
2003-12-13, 01:45:00,VALID,917.045,VALID,0,VALID,100,VALID,-0.0679233,VALID,17.7254,VALID,38,VALID,0.70827,
2003-12-13, 01:46:00,VALID,917.037,VALID,0,VALID,100,VALID,-0.101885,VALID,17.7544,VALID,38,VALID,0.699396,
2003-12-13, 01:47:00,VALID,917.037,VALID,0,VALID,100,VALID,-0.0679233,VALID,17.7639,VALID,38,VALID,0.598292,
2003-12-13, 01:48:00,VALID,917.031,VALID,0,VALID,100,VALID,-0.0679233,VALID,17.7512,VALID,39,VALID,0.53234,
2003-12-13, 01:49:00,VALID,917.02,VALID,0,VALID,100,VALID,-0.0679233,VALID,17.7602,VALID,43,VALID,0.471912,
2003-12-13, 01:50:00,VALID,917.034,VALID,0,VALID,100,VALID,-0.0679233,VALID,17.7865,VALID,43,VALID,0.300037,
2003-12-13, 01:51:00,VALID,917.033,VALID,0,VALID,100,VALID,-0.101885,VALID,17.7736,VALID,62,VALID,0.441939,
2003-12-13, 01:52:00,VALID,917.045,VALID,0,VALID,100,VALID,-0.0679233,VALID,17.7897,VALID,77,VALID,0.482329,
2003-12-13, 01:53:00,VALID,917.05,VALID,0,VALID,100,VALID,-0.0339617,VALID,17.783,VALID,78,VALID,0.386533,
2003-12-13, 01:54:00,VALID,917.064,VALID,0,VALID,100,VALID,-0.0849042,VALID,17.786,VALID,78,VALID,0.34013,
2003-12-13, 01:55:00,VALID,917.067,VALID,0,VALID,100,VALID,-0.101885,VALID,17.7998,VALID,78,VALID,0.311612,
2003-12-13, 01:56:00,VALID,917.063,VALID,0,VALID,100,VALID,-0.101885,VALID,17.8093,VALID,78,VALID,0.296165,
2003-12-13, 01:57:00,VALID,917.063,VALID,0,VALID,100,VALID,-0.101885,VALID,17.8384,VALID,78,VALID,0.326672,
2003-12-13, 01:58:00,VALID,917.055,VALID,0,VALID,100,VALID,-0.101885,VALID,17.8545,VALID,78,VALID,0.297965,
2003-12-13, 01:59:00,VALID,917.058,VALID,0,VALID,99.9952,VALID,-0.0849042,VALID,17.8121,VALID,78,VALID,0.232599,
2003-12-13, 02:00:00,VALID,917.055,VALID,0,VALID,99.9639,VALID,-0.0849042,VALID,17.7706,VALID,78,VALID,0.365412,
2003-12-13, 02:01:00,VALID,917.043,VALID,0,VALID,100,VALID,-0.0849042,VALID,17.7703,VALID,96,VALID,0.571987,
2003-12-13, 02:02:00,VALID,917.03,VALID,0,VALID,99.9954,VALID,-0.0849042,VALID,17.7669,VALID,105,VALID,0.800391,
2003-12-13, 02:03:00,VALID,917.031,VALID,0,VALID,99.9588,VALID,-0.0849042,VALID,17.7671,VALID,108,VALID,0.918403,
2003-12-13, 02:04:00,VALID,917.008,VALID,0,VALID,99.868,VALID,-0.101885,VALID,17.712,VALID,110,VALID,0.969477,
2003-12-13, 02:05:00,VALID,916.996,VALID,0,VALID,99.9863,VALID,-0.0849042,VALID,17.7021,VALID,110,VALID,0.837652,
2003-12-13, 02:06:00,VALID,916.987,VALID,0,VALID,100,VALID,-0.0679233,VALID,17.7542,VALID,110,VALID,0.791061,
2003-12-13, 02:07:00,VALID,916.981,VALID,0,VALID,100,VALID,-0.0849042,VALID,17.7833,VALID,104,VALID,0.843924,
2003-12-13, 02:08:00,VALID,916.958,VALID,0,VALID,100,VALID,-0.0679233,VALID,17.8222,VALID,99,VALID,0.978365,
2003-12-13, 02:09:00,VALID,916.946,VALID,0,VALID,100,VALID,-0.0339617,VALID,17.8797,VALID,100,VALID,1.04978,
2003-12-13, 02:10:00,VALID,916.932,VALID,0,VALID,99.9776,VALID,-0.0509425,VALID,17.9156,VALID,106,VALID,1.10045,
2003-12-13, 02:11:00,VALID,916.911,VALID,0,VALID,99.7205,VALID,0,VALID,17.9246,VALID,115,VALID,1.12538,
2003-12-13, 02:12:00,VALID,916.892,VALID,0,VALID,99.5348,VALID,-0.0169808,VALID,17.9216,VALID,113,VALID,1.55687,
2003-12-13, 02:13:00,VALID,916.872,VALID,0,VALID,99.5921,VALID,-0.0509425,VALID,17.9216,VALID,112,VALID,1.33521,
2003-12-13, 02:14:00,VALID,916.862,VALID,0,VALID,99.4293,VALID,-0.0339617,VALID,17.8928,VALID,117,VALID,1.19792,
2003-12-13, 02:15:00,VALID,916.842,VALID,0,VALID,99.4496,VALID,-0.0679233,VALID,17.8739,VALID,112,VALID,1.45008,
2003-12-13, 02:16:00,VALID,916.832,VALID,0,VALID,99.6124,VALID,-0.0509425,VALID,17.8638,VALID,117,VALID,1.48438,
2003-12-13, 02:17:00,VALID,916.816,VALID,0,VALID,99.7218,VALID,-0.101885,VALID,17.8801,VALID,118,VALID,1.46819,
2003-12-13, 02:18:00,VALID,916.817,VALID,0,VALID,99.7663,VALID,-0.0509425,VALID,17.8769,VALID,124,VALID,1.37393,
2003-12-13, 02:19:00,VALID,916.814,VALID,0,VALID,99.8324,VALID,-0.0509425,VALID,17.8995,VALID,124,VALID,1.34746,
2003-12-13, 02:20:00,VALID,916.804,VALID,0,VALID,99.8667,VALID,-0.0679233,VALID,17.8894,VALID,121,VALID,1.34914,
2003-12-13, 02:21:00,VALID,916.817,VALID,0,VALID,99.854,VALID,-0.0509425,VALID,17.8799,VALID,125,VALID,1.2569,
2003-12-13, 02:22:00,VALID,916.819,VALID,0,VALID,99.924,VALID,0.0169808,VALID,17.8629,VALID,127,VALID,1.30759,
2003-12-13, 02:23:00,VALID,916.817,VALID,0,VALID,99.999,VALID,0.0509425,VALID,17.8721,VALID,129,VALID,1.29745,
2003-12-13, 02:24:00,VALID,916.816,VALID,0,VALID,100,VALID,0.0339617,VALID,17.8751,VALID,127,VALID,1.13758,
2003-12-13, 02:25:00,VALID,916.827,VALID,0,VALID,100,VALID,0.0169808,VALID,17.8725,VALID,127,VALID,1.29325,
2003-12-13, 02:26:00,VALID,916.818,VALID,0,VALID,100,VALID,0.0679233,VALID,17.8751,VALID,122,VALID,1.40588,
2003-12-13, 02:27:00,VALID,916.828,VALID,0,VALID,100,VALID,0.0679233,VALID,17.8811,VALID,121,VALID,1.42133,
2003-12-13, 02:28:00,VALID,916.821,VALID,0,VALID,100,VALID,0.0679233,VALID,17.9011,VALID,121,VALID,1.56631,
2003-12-13, 02:29:00,VALID,916.813,VALID,0,VALID,100,VALID,0.0679233,VALID,17.9138,VALID,120,VALID,1.56729,
2003-12-13, 02:30:00,VALID,916.804,VALID,0,VALID,100,VALID,0.0849042,VALID,17.9263,VALID,120,VALID,1.40568,
2003-12-13, 02:31:00,VALID,916.798,VALID,0,VALID,100,VALID,0.0679233,VALID,17.9424,VALID,118,VALID,1.39045,
2003-12-13, 02:32:00,VALID,916.799,VALID,0,VALID,100,VALID,0.0509425,VALID,17.9554,VALID,125,VALID,1.47093,
2003-12-13, 02:33:00,VALID,916.79,VALID,0,VALID,100,VALID,0.101885,VALID,17.9713,VALID,118,VALID,1.46129,
2003-12-13, 02:34:00,VALID,916.768,VALID,0,VALID,100,VALID,0.101885,VALID,18.0105,VALID,116,VALID,1.53032,
2003-12-13, 02:35:00,VALID,916.764,VALID,0,VALID,100,VALID,0.0679233,VALID,18.0331,VALID,120,VALID,1.39281,
2003-12-13, 02:36:00,VALID,916.744,VALID,0,VALID,100,VALID,0.101885,VALID,18.0423,VALID,120,VALID,1.54155,
2003-12-13, 02:37:00,VALID,916.715,VALID,0,VALID,100,VALID,-0.0679233,VALID,18.0644,VALID,122,VALID,1.61355,
2003-12-13, 02:38:00,VALID,916.703,VALID,0,VALID,99.999,VALID,-0.101885,VALID,18.0937,VALID,120,VALID,1.48438,
2003-12-13, 02:39:00,VALID,916.689,VALID,0,VALID,99.9657,VALID,-0.135847,VALID,18.1096,VALID,124,VALID,1.50289,
2003-12-13, 02:40:00,VALID,916.685,VALID,0,VALID,99.8667,VALID,-0.101885,VALID,18.1324,VALID,124,VALID,1.40663,
2003-12-13, 02:41:00,VALID,916.652,VALID,0,VALID,99.8235,VALID,-0.101885,VALID,18.1389,VALID,125,VALID,1.51429,
2003-12-13, 02:42:00,VALID,916.661,VALID,0,VALID,99.7332,VALID,-0.101885,VALID,18.1578,VALID,127,VALID,1.45531,
2003-12-13, 02:43:00,VALID,916.657,VALID,0,VALID,99.6226,VALID,-0.101885,VALID,18.1643,VALID,124,VALID,1.36142,
2003-12-13, 02:44:00,VALID,916.662,VALID,0,VALID,99.5209,VALID,-0.101885,VALID,18.1843,VALID,117,VALID,1.23723,
2003-12-13, 02:45:00,VALID,916.667,VALID,0,VALID,99.47,VALID,-0.101885,VALID,18.1906,VALID,122,VALID,1.43663,
2003-12-13, 02:46:00,VALID,916.672,VALID,0,VALID,99.4471,VALID,-0.118866,VALID,18.2136,VALID,121,VALID,1.49336,
2003-12-13, 02:47:00,VALID,916.69,VALID,0,VALID,99.4433,VALID,-0.101885,VALID,18.2199,VALID,123,VALID,1.55804,
2003-12-13, 02:48:00,VALID,916.681,VALID,0,VALID,99.3428,VALID,-0.101885,VALID,18.2233,VALID,133,VALID,1.38988,
2003-12-13, 02:49:00,VALID,916.705,VALID,0,VALID,99.3568,VALID,-0.101885,VALID,18.2233,VALID,135,VALID,1.34902,
2003-12-13, 02:50:00,VALID,916.71,VALID,0,VALID,99.3988,VALID,-0.101885,VALID,18.2069,VALID,132,VALID,1.38809,
2003-12-13, 02:51:00,VALID,916.722,VALID,0,VALID,99.4471,VALID,-0.101885,VALID,18.1903,VALID,130,VALID,1.44431,
2003-12-13, 02:52:00,VALID,916.726,VALID,0,VALID,99.4535,VALID,-0.0169808,VALID,18.183,VALID,134,VALID,1.41188,
2003-12-13, 02:53:00,VALID,916.751,VALID,0,VALID,99.4687,VALID,0,VALID,18.1599,VALID,132,VALID,1.40086,
2003-12-13, 02:54:00,VALID,916.746,VALID,0,VALID,99.4636,VALID,0,VALID,18.1634,VALID,134,VALID,1.5032,
2003-12-13, 02:55:00,VALID,916.742,VALID,0,VALID,99.4598,VALID,0,VALID,18.1567,VALID,127,VALID,1.55841,
2003-12-13, 02:56:00,VALID,916.736,VALID,0,VALID,99.4687,VALID,0,VALID,18.1636,VALID,131,VALID,1.52755,
2003-12-13, 02:57:00,VALID,916.737,VALID,0,VALID,99.4344,VALID,0.0169808,VALID,18.1599,VALID,131,VALID,1.45522,
2003-12-13, 02:58:00,VALID,916.731,VALID,0,VALID,99.4484,VALID,0,VALID,18.1539,VALID,127,VALID,1.4739,
2003-12-13, 02:59:00,VALID,916.713,VALID,0,VALID,99.4433,VALID,0,VALID,18.1477,VALID,124,VALID,1.45198,
2003-12-13, 03:00:00,VALID,916.716,VALID,0,VALID,99.3568,VALID,-0.0339617,VALID,18.1408,VALID,121,VALID,1.42535,
2003-12-13, 03:01:00,VALID,916.703,VALID,0,VALID,99.2475,VALID,-0.0169808,VALID,18.1343,VALID,122,VALID,1.46649,
2003-12-13, 03:02:00,VALID,916.694,VALID,0,VALID,99.0656,VALID,-0.0169808,VALID,18.1438,VALID,124,VALID,1.56797,
2003-12-13, 03:03:00,VALID,916.687,VALID,0,VALID,98.8533,VALID,-0.0169808,VALID,18.1534,VALID,124,VALID,1.47674,
2003-12-13, 03:04:00,VALID,916.685,VALID,0,VALID,98.6803,VALID,0,VALID,18.1564,VALID,119,VALID,1.0747,
2003-12-13, 03:05:00,VALID,916.682,VALID,0,VALID,98.487,VALID,0,VALID,18.183,VALID,126,VALID,1.30897,
2003-12-13, 03:06:00,VALID,916.674,VALID,0,VALID,98.2302,VALID,-0.0169808,VALID,18.1827,VALID,131,VALID,1.20182,
2003-12-13, 03:07:00,VALID,916.679,VALID,0,VALID,97.9848,VALID,-0.0339617,VALID,18.1961,VALID,126,VALID,1.3551,
2003-12-13, 03:08:00,VALID,916.677,VALID,0,VALID,97.7699,VALID,-0.0169808,VALID,18.215,VALID,125,VALID,1.13481,
2003-12-13, 03:09:00,VALID,916.668,VALID,0,VALID,97.6084,VALID,-0.0509425,VALID,18.2247,VALID,126,VALID,1.09794,
2003-12-13, 03:10:00,VALID,916.671,VALID,0,VALID,97.4927,VALID,-0.0509425,VALID,18.2411,VALID,119,VALID,1.2474,
2003-12-13, 03:11:00,VALID,916.669,VALID,0,VALID,97.3998,VALID,-0.0169808,VALID,18.2508,VALID,117,VALID,1.36186,
2003-12-13, 03:12:00,VALID,916.645,VALID,0,VALID,97.3312,VALID,-0.0169808,VALID,18.2508,VALID,129,VALID,1.18395,
2003-12-13, 03:13:00,VALID,916.638,VALID,0,VALID,97.293,VALID,0,VALID,18.257,VALID,130,VALID,0.983259,
2003-12-13, 03:14:00,VALID,916.629,VALID,0,VALID,97.1951,VALID,0,VALID,18.2697,VALID,130,VALID,1.41624,
2003-12-13, 03:15:00,VALID,916.609,VALID,0,VALID,97.1023,VALID,0,VALID,18.2759,VALID,122,VALID,1.11846,
2003-12-13, 03:16:00,VALID,916.59,VALID,0,VALID,97.0667,VALID,-0.0339617,VALID,18.2923,VALID,132,VALID,1.35417,
2003-12-13, 03:17:00,VALID,916.588,VALID,0,VALID,97.0234,VALID,-0.0169808,VALID,18.3087,VALID,132,VALID,1.20453,
2003-12-13, 03:18:00,VALID,916.579,VALID,0,VALID,96.937,VALID,-0.0169808,VALID,18.3216,VALID,139,VALID,1.37882,
2003-12-13, 03:19:00,VALID,916.565,VALID,0,VALID,96.8149,VALID,0,VALID,18.3246,VALID,134,VALID,1.25934,
2003-12-13, 03:20:00,VALID,916.564,VALID,0,VALID,96.6686,VALID,-0.0169808,VALID,18.3476,VALID,142,VALID,1.52915,
2003-12-13, 03:21:00,VALID,916.555,VALID,0,VALID,96.4983,VALID,-0.0509425,VALID,18.361,VALID,149,VALID,1.61775,
2003-12-13, 03:22:00,VALID,916.545,VALID,0,VALID,96.3838,VALID,0.0509425,VALID,18.3719,VALID,138,VALID,1.11875,
2003-12-13, 03:23:00,VALID,916.543,VALID,0,VALID,96.3787,VALID,0.0849042,VALID,18.3982,VALID,145,VALID,1.12367,
2003-12-13, 03:24:00,VALID,916.557,VALID,0,VALID,96.4296,VALID,0.0679233,VALID,18.4009,VALID,138,VALID,0.770647,
2003-12-13, 03:25:00,VALID,916.56,VALID,0,VALID,96.5339,VALID,0.0169808,VALID,18.3945,VALID,146,VALID,0.753711,
2003-12-13, 03:26:00,VALID,916.558,VALID,0,VALID,96.7221,VALID,0.0509425,VALID,18.4016,VALID,142,VALID,1.04033,
2003-12-13, 03:27:00,VALID,916.55,VALID,0,VALID,96.942,VALID,0.0169808,VALID,18.3889,VALID,139,VALID,0.879492,
2003-12-13, 03:28:00,VALID,916.551,VALID,0,VALID,97.1213,VALID,0.0339617,VALID,18.3654,VALID,142,VALID,1.09938,
2003-12-13, 03:29:00,VALID,916.542,VALID,0,VALID,97.2803,VALID,0.101885,VALID,18.3594,VALID,132,VALID,0.802202,
2003-12-13, 03:30:00,VALID,916.557,VALID,0,VALID,97.4214,VALID,0.0849042,VALID,18.3361,VALID,152,VALID,0.636133,
2003-12-13, 03:31:00,VALID,916.543,VALID,0,VALID,97.5168,VALID,0.0679233,VALID,18.3234,VALID,159,VALID,0.141741,
2003-12-13, 03:32:00,VALID,916.537,VALID,0,VALID,97.6122,VALID,0.0849042,VALID,18.314,VALID,141,VALID,0.297965,
2003-12-13, 03:33:00,VALID,916.543,VALID,0,VALID,97.6758,VALID,0.0169808,VALID,18.2914,VALID,136,VALID,0.205664,
2003-12-13, 03:34:00,VALID,916.551,VALID,0,VALID,97.7457,VALID,0.0509425,VALID,18.275,VALID,144,VALID,0.540179,
2003-12-13, 03:35:00,VALID,916.546,VALID,0,VALID,97.7826,VALID,0.0849042,VALID,18.2623,VALID,162,VALID,0.541016,